{"data":{"norad_id":61857,"epoch":"2026-09-21T22:50:59.423424Z","epoch_age_seconds":63440,"freshness":"FRESH","line1":"1 61857U 24202N   26264.95207666 -.00000260  00000+0  56809-7 0  9991","line2":"2 61857  43.0003 209.5825 0000615 271.0514  89.0267 15.27574409105352","mean_motion":15.27574409,"eccentricity":6.15e-5,"inclination_deg":43.0003,"raan_deg":209.5825,"arg_perigee_deg":271.0514,"mean_anomaly_deg":89.0267,"bstar":5.6809e-8,"rev_number":10535,"period_min":94.267093734745,"perigee_km":482.64387358156,"apogee_km":483.48780153058,"semimajor_km":6861.2028375561,"source":"CELESTRAK","updated_at":"2026-09-22T09:00:49.442121Z"}}